Search your local weather  

 
Advertise Here

Hazardous Weather Conditions

Air Quality Alert issued July 26 at 2:42PM CDT

Current Conditions: HOUSTON, TEXAS

Partly Cloudy


84.0 F

Last Updated on Jul 27 2021, 12:53 am CDT
Humidity: 77%
Wind Speed: S 3.5 mph
Barometer 29.96 in
Dewpoint: 75.9 F
Visibility: 10.00 mi
Precip: --
Heat Index: 93 F
Wind Chill: NA
Current conditions at:

Houston Intercontinental Airport, TX (KIAH)

Lat: 29.9844 Lon: -95.36074

Local Radar Image active severe weather and emergency alerts image image weather storm and storm spotter reports image weather observation monitoring service image
Local
Radar
Active
Alerts
Storm Reports Weather
Monitoring

5 Day Forecast for HOUSTON, TEXAS (77001)

Tuesday

Chance of T-storms

High 96 °F
Tuesday
Night
Chance of Scattered T-storms
Low 77 °F
Wednesday

Isolated T-storm

High 94 °F
Wednesday
Night
Mostly Clear

Low 78 °F
Thursday

Chance of Scattered T-storms
High 95 °F
Thursday
Night
Partly Cloudy

Low 77 °F
Friday

Chance of Scattered T-storms
High 94 °F
Friday
Night
Clear

Low 77 °F
Saturday

Chance of Scattered T-storms
High 94 °F

Sign-up For Email & Text Message Weather Alert Notification Services


Advertise Here

Observation History for HOUSTON, TEXAS


Time Wind
(mph)
Vis
(mi)
Weather Precip (in) Temperature (F) Relative
Humidity
Wind
Chill
(F)
Heat
Index
(F)
Pressure
Air Dwpt altimeter
(in)
sea level
(mb)
12:53 am CDT S 3.5 10.00 Partly Cloudy -- 84.0 75.9 77% NA 93 29.96 1014.5
11:53 pm CDT S 5.8 10.00 Partly Cloudy -- 85.0 75.9 75% NA 94 29.97 1014.6
10:53 pm CDT S 5.8 10.00 Partly Cloudy -- 86.0 75.0 70% NA 95 29.96 1014.5
9:53 pm CDT S 8.1 10.00 A Few Clouds -- 87.0 73.0 63% NA 94 29.93 1013.4
8:53 pm CDT SE 4.6 10.00 A Few Clouds -- 84.0 69.1 61% NA 88 29.91 1012.5
7:53 pm CDT N 0.0 10.00 A Few Clouds -- 86.0 69.1 57% NA 90 29.89 1012.1
6:53 pm CDT SW 3.5 10.00 A Few Clouds -- 97.0 60.1 29% NA 97 29.89 1011.9
5:53 pm CDT S 3.5 10.00 A Few Clouds -- 98.0 64.9 34% NA 101 29.90 1012.3
4:53 pm CDT N 0.0 10.00 A Few Clouds -- 97.0 63.0 33% NA 99 29.91 1012.8
3:53 pm CDT S 4.6 10.00 A Few Clouds -- 97.0 66.9 37% NA 101 29.94 1013.7
2:53 pm CDT SW 4.6 10.00 A Few Clouds -- 95.0 68.0 41% NA 100 29.95 1014.0
1:53 pm CDT N 0.0 10.00 A Few Clouds -- 93.0 70.0 47% NA 99 29.97 1014.7
12:53 pm CDT W 6.9 10.00 A Few Clouds -- 91.0 71.1 52% NA 98 29.99 1015.3
11:53 am CDT N 6.9 10.00 A Few Clouds -- 90.0 73.0 58% NA 98 30.00 1015.7
10:53 am CDT NW 5.8 10.00 A Few Clouds -- 88.0 73.0 61% NA 96 30.00 1015.9
9:53 am CDT W 6.9 10.00 A Few Clouds -- 85.0 75.0 72% NA 94 30.00 1015.6
8:53 am CDT SW 4.6 10.00 A Few Clouds -- 83.0 75.0 77% NA 90 29.99 1015.4
7:53 am CDT 3.5 10.00 A Few Clouds -- 80.0 75.0 85% NA 85 29.98 1015.0
6:53 am CDT S 3.5 10.00 Partly Cloudy -- 78.0 73.9 87% NA NA 29.96 1014.4
5:53 am CDT N 0.0 10.00 Mostly Cloudy -- 79.0 73.9 85% NA NA 29.95 1014.1
4:53 am CDT SW 4.6 10.00 Partly Cloudy -- 80.0 73.9 82% NA 84 29.94 1013.8
3:53 am CDT SW 4.6 10.00 Mostly Cloudy -- 80.0 73.9 82% NA 84 29.94 1013.6
2:53 am CDT SW 5.8 10.00 Partly Cloudy -- 81.0 73.9 79% NA 86 29.94 1013.8
1:53 am CDT SW 4.6 10.00 Partly Cloudy -- 82.0 73.9 77% NA 88 29.96 1014.4

Regional Weather Observation

Houston, Hooks Memorial Airport, TX (KDWH)

Fair
81.0 F

Houston Executive Airport, TX (KTME)

Overcast
79.0 F

John Dunn Helistop, TX (KMCJ)

Partly Cloudy
82.0 F

Houston, Sugar Land Municipal / Hull Field Airport, TX (KSGR)

Fair
82.0 F

Houston, Houston Hobby Airport, TX (KHOU)

Mostly Cloudy
83.0 F

Conroe, Montgomery County Airport, TX (KCXO)

Fair
74.0 F
Advertise Here

Advertise Here